Miscellaneous Local Product
Issued by NWS Hastings, NE

Home | Current Version | Previous Version | Graphics & Text | Print | Product List | Glossary On
Versions: 1 2 3 4 5 6 7 8 9 10 11 12 13 14 15 16 17 18 19 20 21 22 23 24 25 26 27 28 29 30 31 32 33 34 35 36 37 38 39 40 41 42 43 44 45 46 47 48 49 50
000
AXUS43 KGID 051302
MISGRI

GID CWA HOURLY WEATHER ROUNDUP
NATIONAL WEATHER SERVICE HASTINGS NE
700 AM CST THU MAR 05 2015

NOTE: "FAIR" INDICATES FEW OR NO CLOUDS BELOW 12,000 FEET WITH NO
SIGNIFICANT WEATHER AND/OR OBSTRUCTIONS TO VISIBILITY.

...SOUTH CENTRAL NEBRASKA...

CITY           SKY/WX    TMP DP  RH WIND       PRES   REMARKS
GRAND ISLAND   PTCLDY     3  -4  72 S7        30.44R WCI  -9
HASTINGS       FAIR       7  -3  64 S5        30.41S WCI  -2
KEARNEY        PTCLDY     5   0  78 CALM      30.40R
ORD            PTCLDY    -3  -9  75 CALM      30.38S
YORK           CLEAR      1  -2  85 CALM      30.45S
AURORA         PTCLDY     3  -4  72 CALM      30.44R
LEXINGTON      PTCLDY     3  -1  83 CALM      30.37S
HOLDREGE       PTCLDY     5  -2  72 S3        30.38S
HEBRON         CLEAR      3  -3  77 CALM      30.49S

...NEBRASKA PANHANDLE...

CITY           SKY/WX    TMP DP  RH WIND       PRES   REMARKS
CHADRON        MOCLDY    -7 -13  75 W6        30.19S WCI -20
ALLIANCE       PTCLDY    -1  -7  75 W7        30.16S WCI -14
SCOTTSBLUFF    PTCLDY     6   0  76 N3        30.19R
SIDNEY         CLEAR     10   3  73 W9        30.19R WCI  -3

...WESTERN AND NORTH CENTRAL NEBRASKA...

CITY           SKY/WX    TMP DP  RH WIND       PRES   REMARKS
VALENTINE      PTCLDY    -1  -6  79 CALM      30.27S
AINSWORTH      PTCLDY     1  -3  80 S7        30.29S WCI -11
ONEILL         PTCLDY    -1  -5  82 S6        30.36S WCI -13
BROKEN BOW     PTCLDY    -2  -8  76 CALM      30.34S
IMPERIAL         N/A      5   0  79 CALM      30.28R
NORTH PLATTE   PTCLDY     0  -5  79 E5        30.32S WCI -10
MCCOOK         PTCLDY     7   0  73 E5        30.35R WCI  -2

...EASTERN NEBRASKA...

CITY           SKY/WX    TMP DP  RH WIND       PRES   REMARKS
NORFOLK        PTCLDY    -3  -9  75 CALM      30.44S
SO SIOUX CITY  PTCLDY    -2  -7  79 CALM      30.52R
TEKAMAH        CLEAR      0  -7  72 CALM      30.53S
COLUMBUS       CLEAR     -2 -13  60 CALM      30.47S
ALBION         PTCLDY    -2  -8  77 CALM      30.42S
OMAHA EPPLEY   CLEAR      4  -1  80 CALM      30.54R
OFFUTT AFB     CLEAR      1  -3  82 CALM      30.52S
MILLARD        CLEAR      5  -2  74 CALM      30.53R
LINCOLN        CLEAR      1  -4  79 N3        30.52R
NEBRASKA CITY  CLEAR      5  -6  60 CALM      30.52R
BEATRICE       CLEAR      3  -2  79 CALM      30.50R
FALLS CITY     FAIR       3  -3  76 CALM      30.55R

...NORTHERN KANSAS...

CITY           SKY/WX    TMP DP  RH WIND       PRES   REMARKS
GOODLAND       CLEAR     13   7  77 SW12      30.28S WCI  -1
HILL CITY      CLEAR      4  -3  73 NE3       30.40S
NORTON         SUNNY      9   0  66 CALM      30.38
PHILLIPSBURG   CLEAR      9   1  72 NE3       30.44R
SMITH CENTER   CLEAR      7   0  72 E10       30.45R WCI  -8
BELOIT         CLEAR     10   1  67 E7        30.49R WCI   0
HAYS           FAIR       9  -4  56 CALM      30.40F
RUSSELL        CLEAR     12   3  67 SE9       30.42R WCI   0
CONCORDIA      CLEAR      6   0  76 SE7       30.49R WCI  -6
SALINA         CLEAR     13   3  64 SE5       30.51S WCI   5
TOPEKA         CLEAR     10   1  67 CALM      30.56S



USA.gov is the U.S. government's official web portal to all federal, state and local government web resources and services.